Regional Weather Roundup
Issued by NWS

Home | Current Version | Previous Version | Text Only | Print | Product List | Glossary On
Versions: 1 2 3 4 5 6 7 8 9 10 11 12 13 14 15 16 17 18 19 20 21 22 23 24 25 26 27 28 29 30 31 32 33 34 35 36 37 38 39 40 41 42 43 44 45 46 47 48 49 50
000
ASUS43 KMPX 010410
RWRMN
WEATHER ROUNDUP FOR MINNESOTA
NATIONAL WEATHER SERVICE TWIN CITIES/CHANHASSEN MN
1100 PM CDT SAT APR 30 2016


NOTE: "FAIR" INDICATES FEW OR NO CLOUDS BELOW 12,000 FEET WITH NO
SIGNIFICANT WEATHER AND/OR OBSTRUCTIONS TO VISIBILITY. N/A MEANS
CURRENT SKY AND/OR WEATHER CONDITIONS ARE NOT AVAILABLE.

MNZ060>063-068>070-010500-
   Twin Cities Metro

CITY           SKY/WX    TMP DP  RH WIND       PRES   REMARKS
TWIN CITIES    CLOUDY    48  29  47 NE14      30.11R
ST PAUL        CLOUDY    48  32  53 NE9       30.13R
CRYSTAL        CLOUDY    48  28  46 NE15G22   30.12R
BLAINE         CLOUDY    48  30  49 NE13      30.13R
EDEN PRAIRIE   CLOUDY    49  28  44 NE13      30.10R
SOUTH ST PAUL  CLOUDY    49  31  50 NE10      30.11R
LAKE ELMO      CLOUDY    46  32  57 NE8       30.12R
$$
MNZ001>005-007-008-013>017-022>024-027-028-010500-
   Northwest Minnesota

CITY           SKY/WX    TMP DP  RH WIND       PRES   REMARKS
BEMIDJI        CLEAR     42  28  57 E5        30.22R
HALLOCK        CLEAR     43  27  52 CALM      30.28R
ROSEAU         CLEAR     43  32  65 CALM      30.28S
WARROAD        CLEAR     43  32  65 N3        30.29R
THIEF RVR FALL CLEAR     45  27  49 N9        30.26S
CROOKSTON      CLEAR     46  28  49 NE8       30.26R
FOSSTON        CLEAR     43  27  52 NE6       30.23S
DETROIT LAKES  CLEAR     48  30  49 NE8       30.20R
MOORHEAD       CLOUDY    48  28  46 NE12      30.21R
PARK RAPIDS    CLEAR     48  29  47 E6        30.20R
MAHNOMEN       FAIR      46  30  54 NE9       30.21S
$$
MNZ006-009>011-018-025>026-010500-
   North Central Minnesota

CITY           SKY/WX    TMP DP  RH WIND       PRES   REMARKS
BAUDETTE       CLEAR     45  26  47 NE7       30.26S
FLAG ISLAND    CLEAR     50  25  37 NE6       30.28R
INTL FALLS     CLEAR     44  28  53 NE5       30.25S
WASKISH        CLEAR     45  28  53 NE5       30.24S
BIG FORK       CLEAR     39  28  65 CALM      30.24S
LONGVILLE      CLEAR     37  30  75 CALM      30.22R
GRAND RAPIDS   CLEAR     41  25  52 E3        30.24R
CRANE LAKE     CLEAR     30  27  86 CALM      30.28R
ORR            CLEAR     39  27  60 CALM      30.23S
COOK           CLEAR     34  27  75 CALM      30.25S
WALKER         FAIR      45  32  60 CALM      30.22R
$$
MNZ012-019>021-037-010500-
   Northeast Minnesota

CITY           SKY/WX    TMP DP  RH WIND       PRES   REMARKS
DULUTH         CLOUDY    38  26  62 E12       30.22S
ELY            CLEAR     32  27  80 CALM      30.25S
HIBBING        CLEAR     29  26  89 CALM      30.23S
EVELETH        CLEAR     32  28  86 N3        30.25S
DULUTH HARBOR  PTCLDY    39  36  87 NE10      30.24F
TWO HARBORS    CLOUDY    39  28  65 NE3       30.22S
SILVER BAY     CLEAR     37  27  65 N3        30.22F
GRAND MARAIS     N/A     46  27  47 VRB7      30.25F
G MARAIS ARPRT CLEAR     32  23  69 N8        30.25S WCI  25
$$
MNZ029>031-032-039>041-046>048-054>057-064-010500-
   West Central Minnesota

CITY           SKY/WX    TMP DP  RH WIND       PRES   REMARKS
FERGUS FALLS   CLOUDY    48  30  49 E3        30.17R
WHEATON        CLOUDY    45  34  65 NE6       30.19R
MORRIS         CLOUDY    48  30  49 E22       30.15R
ALEXANDRIA     CLOUDY    45  28  51 E14       30.18R
ELBOW LAKE     FAIR      47  31  54 E10       30.18R
WADENA         CLOUDY    43  28  56 E5        30.20R
GLENWOOD       PTCLDY    45  30  57 NE17      30.16R
APPLETON       CLOUDY    48  30  49 NE9       30.14R
BENSON         CLOUDY    46  28  49 E12G18    30.14S
ORTONVILLE     CLOUDY    46  30  53 NE10      30.15R
MADISON        CLOUDY    46  30  53 NE14      30.13R
WILLMAR        FAIR      48  30  49 NE15G25   30.14R
$$
MNZ033>034-036-042>043-049>051-058-059-010500-
   Central Minnesota

CITY           SKY/WX    TMP DP  RH WIND       PRES   REMARKS
ST CLOUD       CLOUDY    44  27  51 NE13G22   30.14S
SAUK CENTRE    FAIR      44  29  55 NE14G21   30.17R
PAYNESVILLE    CLOUDY    45  28  52 NE12G20   30.15R
AITKIN         CLOUDY    43  25  49 NE9       30.21R
PINE RIVER     CLEAR     43  30  61 NE3       30.24R
BRAINERD       PTCLDY    42  27  55 E12G20    30.21R
STAPLES        CLOUDY    43  27  52 E3        30.20R
LONG PRAIRIE   FAIR      41  28  60 NE13G21   30.18S
LITTLE FALLS   CLOUDY    43  28  56 NE6       30.18S
LITCHFIELD     CLOUDY    48  30  49 NE10G21   30.13R
BUFFALO        CLOUDY    47  28  47 NE17G24   30.14R
MAPLE LAKE     CLOUDY    46  32  58 NE7       30.14R
HUTCHINSON     CLOUDY    49  33  55 NE10      30.12R
$$
MNZ037-044-045-052-053-010500-
   East Central Minnesota

CITY           SKY/WX    TMP DP  RH WIND       PRES   REMARKS
PRINCETON      CLOUDY    45  28  53 N12G17    30.16R
MORA           CLOUDY    37  28  70 NE7       30.19S
CAMBRIDGE      MOCLDY    46  30  53 NE9G23    30.14R
RUSH CITY      PTCLDY    42  28  58 NE10G20   30.16S
MOOSE LAKE     CLOUDY    37  28  70 NE6       30.19S
HINCKLEY       FAIR      39  32  75 NE12      30.18S
CLOQUET        CLOUDY    37  27  65 NE8       30.22S
MCGREGOR       PTCLDY    39  30  70 NE6       30.22S
$$
MNZ071>073-080-081-089-090-097-098-010500-
   Southwest Minnesota

CITY           SKY/WX    TMP DP  RH WIND       PRES   REMARKS
MONTEVIDEO     CLOUDY    46  32  57 E15       30.14R
GRANITE FALLS  CLOUDY    51  34  53 NE18G24   30.12R
CANBY          CLOUDY    50  35  57 NE13      30.12S
MARSHALL       CLOUDY    48  35  60 E14       30.10R
REDWOOD FALLS  CLOUDY    49  34  56 NE7       30.10R
OLIVIA         CLOUDY    50  32  50 NE14G21   30.10R
PIPESTONE      CLOUDY    45  41  87 E8        30.07R
WINDOM         LGT RAIN  43  43 100 E14       30.07R
WORTHINGTON    LGT RAIN  43  40  89 E18G25    30.06R
JACKSON        LGT RAIN  43  39  87 E17G23    30.07R
TRACY          DRIZZLE   45  44  97 NE5       30.09S
SLAYTON        DRIZZLE   42  42 100 E9        30.08R
$$
MNZ065>067-074>077-082>085-091>093-010500-
   South Central Minnesota

CITY           SKY/WX    TMP DP  RH WIND       PRES   REMARKS
MANKATO        CLOUDY    45  39  81 NE7       30.09R
NEW ULM        LGT RAIN  45  43  93 E5        30.10R
ST JAMES       DRIZZLE   39  37  93 E8        30.09S
FAIRMONT       CLOUDY    43  34  70 NE14      30.06R
GLENCOE        CLOUDY    49  33  52 NE10G17   30.10R
FARIBAULT      CLOUDY    45  43  93 NE5       30.09R
OWATONNA       DRIZZLE   45  39  81 NE8       30.08S
WASECA         DRIZZLE   43  39  87 E9        30.09S
ALBERT LEA     CLOUDY    43  43 100 NE13      30.05R
$$
MNZ078>079-086>088-094>096-010500-
   Southeast Minnesota

CITY           SKY/WX    TMP DP  RH WIND       PRES   REMARKS
ROCHESTER      LGT RAIN  42  40  92 E13       30.06R
RED WING       CLOUDY    48  36  61 CALM      30.09R
STANTON        RAIN      47  40  79 E3        30.08R
DODGE CENTER   DRIZZLE   41  41 100 NE10      30.07R
WINONA         DRIZZLE   45  39  81 E5        30.08R
AUSTIN         LGT RAIN  43  37  81 E17       30.04S
PRESTON        LGT RAIN  40  38  93 NE5       30.05S
$$
ABBREVIATIONS USED IN REMARKS
   TC - TEMPERATURES IN CELSIUS
  WCI - WIND CHILL INDEX
   HX - HEAT INDEX
  VSB - VISIBILITY
$$




USA.gov is the U.S. government's official web portal to all federal, state and local government web resources and services.